Change the Weather History Date:

Sunday, October 28, 2012

  Actual Average Record
Temperature  
Mean Temperature 51 °F -  
Max Temperature 54 °F - - ()
Min Temperature 48 °F - - ()
Degree Days  
Heating Degree Days 14    
Growing Degree Days 1 (Base 50)    
Moisture  
Dew Point 45 °F    
Average Humidity 78    
Maximum Humidity 86    
Minimum Humidity 65    
Precipitation  
Precipitation 0.00 in - - ()
Sea Level Pressure  
Sea Level Pressure 30.02 in    
Wind  
Wind Speed 5 mph ()    
Max Wind Speed 8 mph    
Max Gust Speed -    
T = Trace of Precipitation, MM = Missing Value Source: Averaged Metar Reports

Daily Weather History Graph

Daily Weather History Graph

Search for Another Location

Airport or City:

Trip Planner

Search our weather history database for the weather conditions in past years. The results will help you decide how hot, cold, wet, or windy it might be!

Date:

Astronomy

Oct. 28, 2012 Rise Set
Actual Time 7:28 AM EDT 5:46 PM EDT
Civil Twilight 6:58 AM EDT 6:17 PM EDT
Nautical Twilight 6:23 AM EDT 6:51 PM EDT
Astronomical Twilight 5:49 AM EDT 7:26 PM EDT
Moon 5:03 PM EDT (10/28) 6:17 AM EDT (10/28)
Length of Visible Light 11h 18m
Length of Day
10h 17m
Waxing Gibbous, 99% of the Moon is Illuminated
Oct 28
Waxing Gibbous
Oct 29
Full
Nov 6
Last Quarter
Nov 13
New
Nov 20
First Quarter

Hourly Weather History & Observations

Time (EDT) Temp. Dew Point Humidity Pressure Visibility Wind Dir Wind Speed Gust Speed Precip Events Conditions
12:00 AM 53.2 °F 47.1 °F 80% 30.01 in - North 4.6 mph - N/A   Unknown
1:00 AM 51.6 °F 46.2 °F 82% 30.03 in - North 5.8 mph - N/A   Unknown
2:00 AM 51 °F 45 °F 73% 30.03 in - North 6.9 mph - -  
2:00 AM 50.9 °F 45.0 °F 80% 30.03 in - North 6.9 mph - N/A   Unknown
3:00 AM 50.2 °F 45.1 °F 83% 30.03 in - North 5.8 mph - N/A   Unknown
4:00 AM 50.0 °F 44.6 °F 82% 30.04 in - North 4.6 mph - N/A   Unknown
5:00 AM 49.6 °F 44.4 °F 82% 30.04 in - North 4.6 mph - N/A   Unknown
6:00 AM 48.7 °F 44.2 °F 84% 30.05 in - North 3.5 mph - N/A   Unknown
7:00 AM 48.9 °F 44.4 °F 84% 30.05 in - North 4.6 mph - N/A   Unknown
8:00 AM 49 °F 45 °F 79% 30.06 in - North 4.6 mph - -  
8:00 AM 48.9 °F 44.6 °F 85% 30.06 in - North 4.6 mph - N/A   Unknown
9:00 AM 49.6 °F 45.5 °F 86% 30.07 in - North 3.5 mph - N/A   Unknown
10:00 AM 50.5 °F 46.0 °F 85% 30.06 in - North 5.8 mph - N/A   Unknown
11:00 AM 52.2 °F 46.9 °F 82% 30.06 in - NNE 4.6 mph - N/A   Unknown
12:00 PM 52.7 °F 46.9 °F 81% 30.05 in - NNE 5.8 mph - N/A   Unknown
1:00 PM 53.4 °F 46.2 °F 77% 30.03 in - NNE 6.9 mph - N/A   Unknown
2:00 PM 53.8 °F 45.5 °F 74% 30.02 in - North 8.1 mph - N/A   Unknown
3:00 PM 54.5 °F 45.1 °F 71% 30.00 in - NNE 6.9 mph - N/A   Unknown
4:00 PM 54.5 °F 44.4 °F 69% 29.99 in - NNE 6.9 mph - N/A   Unknown
5:00 PM 54.3 °F 44.2 °F 69% 29.99 in - NNE 8.1 mph - N/A   Unknown
6:00 PM 54.5 °F 44.4 °F 69% 29.97 in - NNE 6.9 mph - N/A   Unknown
7:00 PM 54.3 °F 45.3 °F 72% 29.97 in - NNE 8.1 mph - N/A   Unknown
8:00 PM 54 °F 46 °F 65% 29.98 in - NNE 6.9 mph - -  
8:00 PM 53.8 °F 45.7 °F 74% 29.98 in - NNE 6.9 mph - N/A   Unknown
9:00 PM 52.9 °F 45.5 °F 76% 29.99 in - NNE 8.1 mph - N/A   Unknown
10:00 PM 51.4 °F 45.5 °F 80% 29.98 in - North 8.1 mph - N/A   Unknown
11:00 PM 50.5 °F 45.5 °F 83% 29.98 in - NNE 6.9 mph - N/A   Unknown